Regional Weather Roundup
Issued by NWS

Home | Current Version | Previous Version | Graphics & Text | Print | Product List | Glossary On
Versions: 1 2 3 4 5 6 7 8 9 10 11 12 13 14 15 16 17 18 19 20 21 22 23 24 25 26 27 28 29
000
ASUS45 KGTF 201310
RWRMT
MONTANA HOURLY WEATHER ROUNDUP
NATIONAL WEATHER SERVICE GREAT FALLS MT
700 AM MDT MON APR 20 2015

NOTE: "FAIR" INDICATES FEW OR NO CLOUDS BELOW 12000 FEET WITH NO
SIGNIFICANT WEATHER AND/OR OBSTRUCTIONS TO VISIBILITY.

MTZ001>007-043-201400-
WEST OF THE DIVIDE

CITY           SKY/WX    TMP DP  RH WIND       PRES   REMARKS
KALISPELL      SUNNY     29  26  89 NW3       30.00R
MISSOULA       CLEAR     31  25  78 CALM      30.04R
BUTTE          CLEAR     23  20  88 S7        30.04R WCI  15
DEER LODGE       N/A     27  21  80 W5        30.07S
EUREKA           N/A     28  25  86 CALM      30.03S
HAMILTON         N/A     36  27  69 S7        30.02R WCI  30
LIBBY            N/A     28  27  93 CALM      30.02S
$$

MTZ008-052>055-201400-
SOUTHWEST MONTANA

CITY           SKY/WX    TMP DP  RH WIND       PRES   REMARKS
BOZEMAN        CLEAR     28  23  81 S3        30.04S
DILLON         CLEAR     33  24  69 S7        30.03R WCI  27
$$

MTZ009-010-012-014-046-048-049-054-201400-
EAST SLOPES AND CENTRAL MONTANA

CITY           SKY/WX    TMP DP  RH WIND       PRES   REMARKS
CUT BANK       CLEAR     22  18  85 NW7       29.97S WCI  13
GREAT FALLS    CLEAR     28  23  81 CALM      29.97F
MALMSTROM AFB  PTCLDY    28  24  85 S2        29.99S
HELENA         CLEAR     31  23  72 CALM      30.03S
$$

MTZ011-013-016-021-045-047-050-051-201400-
NORTH CENTRAL MONTANA

CITY           SKY/WX    TMP DP  RH WIND       PRES   REMARKS
HAVRE          CLEAR     22  18  85 CALM      30.00F
CHINOOK          N/A     19  18  93 NW3       30.02S
FORT BENTON      N/A     28  23  80 CALM      30.01S
$$

MTZ017>020-022>042-056>058-061-062-201400-
EASTERN PLAINS

CITY           SKY/WX    TMP DP  RH WIND       PRES   REMARKS
BAKER          PTCLDY    27  20  75 W10       29.95S WCI  17
BILLINGS       PTCLDY    35  22  58 SW6       30.01S WCI  30
GLASGOW        CLEAR     27  21  78 NW8       29.98F WCI  19
JORDAN           N/A     24  17  74 W6        29.98F WCI  17
LIVINGSTON     CLEAR     27  22  81 NW10      30.02R WCI  17
MILES CITY     CLEAR     28  17  63 W10       29.99S WCI  19
SIDNEY         CLEAR     30  18  59 W8        29.96R WCI  23
WOLF POINT     CLEAR     28  22  78 SW7       29.99S WCI  21
FORSYTH          N/A     30  21  69 SW5       30.00S
PLENTYWOOD       N/A     27  16  63 W5        29.95S
POPLAR           N/A     27  21  80 W5        29.98S
$$

REGIONAL REPORTS...DAKOTAS

CITY           SKY/WX    TMP DP  RH WIND       PRES   REMARKS
WILLISTON      CLEAR     27  16  63 VRB3      29.94S
MINOT          SUNNY     30  20  66 NW22G28   29.83R WCI  17
DICKINSON      SUNNY     27  17  66 W13       29.88S WCI  16
BEACH          FAIR      30  19  64 NW9       29.95R WCI  22
CROSBY         FAIR      27  19  74 NW13      29.93S WCI  16
WATFORD CITY   FAIR      28  18  64 NW9       29.91S WCI  20
BISMARCK       SUNNY     32  18  56 NW16G24   29.84S WCI  21
GRAND FORKS    CLOUDY    33  25  72 NW23G29   29.66S WCI  21
FARGO          CLOUDY    35  28  75 NW16      29.66F WCI  25
BUFFALO SD       N/A     30  20  66 W15       29.86R WCI  19
RAPID CITY     CLEAR     30  20  66 W7        29.94S WCI  23
$$

REGIONAL REPORTS...WYOMING/IDAHO/WASHINGTON

CITY           SKY/WX    TMP DP  RH WIND       PRES   REMARKS
GILLETTE       CLEAR     27  19  72 W12       29.98R WCI  17
SHERIDAN       CLEAR     27  18  69 E3        29.99S
BUFFALO WY     CLEAR     31  16  54 SW6       29.99S WCI  25
CODY           PTCLDY    28  25  86 S5        30.01R
YELLOWSTONE LA   N/A     21  17  84 CALM      30.05R
IDAHO FALLS    CLEAR     32  25  75 N5        30.00R
SALMON         CLEAR     28  25  86 CALM      30.03R
BOISE          CLEAR     43  30  60 S3        29.95R
SPOKANE        MOCLDY    44  32  62 CALM      29.95S
$$

REGIONAL REPORTS...ALBERTA

CITY           SKY/WX    TMP DP  RH WIND       PRES   REMARKS
EDMONTON       CLEAR     32  23  69 SW5       29.90F
CALGARY        PTCLDY    30  23  74 CALM      29.96R
LETHBRIDGE     CLEAR     28  25  86 SW8       29.96R WCI  20
MEDICINE HAT   PTCLDY    27  23  86 CALM      29.98F
$$

REGIONAL REPORTS...SASKATCHEWAN

CITY           SKY/WX    TMP DP  RH WIND       PRES   REMARKS
SWIFT CURRENT  MOCLDY    30  23  74 SW7       29.95F WCI  23
REGINA         PTCLDY    23  21  93 NW6       29.97R WCI  16
SASKATOON      PTCLDY    28  23  80 S3        29.98S
$$



USA.gov is the U.S. government's official web portal to all federal, state and local government web resources and services.